Hourly Weather Alimgulovo

Today, 17 May, Monday

Time Temperature Precipitation Wind Pressure Humidity
00:00 +20°C° 0 mm 1 mps 735 mmHg 48%
01:00 +20°C° 0 mm 1 mps 735 mmHg 49%
02:00 +19°C° 0 mm 1 mps 735 mmHg 49%
03:00 +19°C° 0 mm 1 mps 735 mmHg 49%
04:00 +19°C° 0 mm 1 mps 735 mmHg 47%
05:00 +20°C° 0 mm 1 mps 736 mmHg 46%
06:00 +21°C° 0 mm 1 mps 736 mmHg 46%
07:00 +23°C° 0 mm 1 mps 736 mmHg 46%
08:00 +25°C° 0 mm 2 mps 736 mmHg 42%
09:00 +26°C° 0 mm 2 mps 736 mmHg 38%
10:00 +28°C° 0 mm 2 mps 736 mmHg 34%
11:00 +29°C° 0 mm 3 mps 736 mmHg 31%
12:00 +30°C° 0 mm 3 mps 736 mmHg 28%
13:00 +32°C° 0 mm 4 mps 736 mmHg 25%
14:00 +31°C° 0 mm 3 mps 736 mmHg 25%
15:00 +31°C° 0 mm 3 mps 736 mmHg 26%
16:00 +31°C° 0 mm 3 mps 735 mmHg 26%
17:00 +29°C° 0 mm 2 mps 735 mmHg 31%
18:00 +28°C° 0 mm 1 mps 735 mmHg 36%
19:00 +26°C° 0 mm 1 mps 734 mmHg 42%
20:00 +25°C° 0 mm 1 mps 734 mmHg 42%
21:00 +24°C° 0 mm 1 mps 734 mmHg 43%
22:00 +23°C° 0 mm 1 mps 734 mmHg 43%
23:00 +22°C° 0 mm 1 mps 734 mmHg 47%

Tomorrow, 18 May, Tuesday

Time Temperature Precipitation Wind Pressure Humidity
00:00 +20°C° 0 mm 2 mps 734 mmHg 50%
01:00 +19°C° 0 mm 2 mps 734 mmHg 53%
02:00 +19°C° 0 mm 1 mps 734 mmHg 54%
03:00 +18°C° 0 mm 1 mps 734 mmHg 56%
04:00 +18°C° 0 mm 1 mps 734 mmHg 58%
05:00 +19°C° 0 mm 1 mps 734 mmHg 56%
06:00 +19°C° 0 mm 0 mps 734 mmHg 54%
07:00 +20°C° 0 mm 0 mps 734 mmHg 51%
08:00 +24°C° 0 mm 1 mps 734 mmHg 46%
09:00 +26°C° 0 mm 1 mps 734 mmHg 42%
10:00 +28°C° 0 mm 1 mps 734 mmHg 37%
11:00 +29°C° 0 mm 1 mps 734 mmHg 33%
12:00 +30°C° 0 mm 2 mps 734 mmHg 29%
13:00 +30°C° 0 mm 2 mps 733 mmHg 25%
14:00 +30°C° 0 mm 3 mps 733 mmHg 26%
15:00 +30°C° 0 mm 3 mps 733 mmHg 27%
16:00 +30°C° 0 mm 3 mps 733 mmHg 28%
17:00 +29°C° 0 mm 3 mps 733 mmHg 37%
18:00 +27°C° 0 mm 3 mps 732 mmHg 46%
19:00 +25°C° 0 mm 3 mps 732 mmHg 55%
20:00 +24°C° 0 mm 3 mps 732 mmHg 61%
21:00 +21°C° 0 mm 3 mps 732 mmHg 67%
22:00 +19°C° 0 mm 3 mps 732 mmHg 73%
23:00 +19°C° 0 mm 3 mps 732 mmHg 74%

Day after tomorrow, 19 May, Wednesday

Time Temperature Precipitation Wind Pressure Humidity
00:00 +18°C° 0 mm 3 mps 732 mmHg 74%
01:00 +17°C° 0 mm 2 mps 732 mmHg 75%
02:00 +16°C° 0 mm 3 mps 732 mmHg 75%
03:00 +15°C° 0 mm 4 mps 732 mmHg 74%
04:00 +14°C° 0 mm 4 mps 732 mmHg 74%
05:00 +15°C° 0 mm 5 mps 733 mmHg 72%
06:00 +16°C° 0 mm 5 mps 733 mmHg 71%
07:00 +16°C° 0 mm 6 mps 733 mmHg 70%
08:00 +17°C° 0 mm 6 mps 734 mmHg 64%
09:00 +20°C° 0 mm 6 mps 734 mmHg 57%
10:00 +21°C° 0 mm 6 mps 734 mmHg 51%
11:00 +22°C° 0 mm 6 mps 734 mmHg 47%
12:00 +22°C° 0 mm 6 mps 734 mmHg 44%
13:00 +23°C° 0 mm 6 mps 734 mmHg 41%
14:00 +23°C° 0 mm 6 mps 734 mmHg 40%
15:00 +23°C° 0 mm 6 mps 734 mmHg 38%
16:00 +23°C° 0 mm 6 mps 734 mmHg 37%
17:00 +22°C° 0 mm 5 mps 734 mmHg 43%
18:00 +20°C° 0 mm 5 mps 735 mmHg 49%
19:00 +19°C° 0 mm 4 mps 735 mmHg 55%
20:00 +18°C° 0 mm 4 mps 735 mmHg 57%
21:00 +16°C° 0 mm 3 mps 735 mmHg 59%
22:00 +14°C° 0 mm 2 mps 735 mmHg 61%
23:00 +14°C° 0 mm 2 mps 735 mmHg 61%

20 May, Thursday

Time Temperature Precipitation Wind Pressure Humidity
00:00 +13°C° 0 mm 2 mps 735 mmHg 61%
01:00 +12°C° 0 mm 2 mps 736 mmHg 61%
02:00 +12°C° 0 mm 2 mps 736 mmHg 62%
03:00 +10°C° 0 mm 2 mps 736 mmHg 63%
04:00 +10°C° 0 mm 2 mps 736 mmHg 64%
05:00 +11°C° 0 mm 3 mps 736 mmHg 61%
06:00 +13°C° 0 mm 3 mps 736 mmHg 58%
07:00 +14°C° 0 mm 4 mps 736 mmHg 55%
08:00 +17°C° 0 mm 4 mps 736 mmHg 50%
09:00 +17°C° 0 mm 5 mps 736 mmHg 45%
10:00 +20°C° 0 mm 5 mps 736 mmHg 40%
11:00 +21°C° 0 mm 5 mps 736 mmHg 38%
12:00 +22°C° 0 mm 5 mps 736 mmHg 36%
13:00 +22°C° 0 mm 4 mps 736 mmHg 34%
14:00 +23°C° 0 mm 5 mps 736 mmHg 33%
15:00 +23°C° 0 mm 5 mps 735 mmHg 33%
16:00 +23°C° 0 mm 5 mps 735 mmHg 32%
17:00 +22°C° 0 mm 4 mps 735 mmHg 39%
18:00 +21°C° 0 mm 3 mps 735 mmHg 46%
19:00 +19°C° 0 mm 2 mps 735 mmHg 52%
20:00 +18°C° 0 mm 2 mps 735 mmHg 52%
21:00 +16°C° 0 mm 2 mps 734 mmHg 53%
22:00 +15°C° 0 mm 2 mps 734 mmHg 53%
23:00 +15°C° 0 mm 2 mps 734 mmHg 53%

21 May, Friday

Time Temperature Precipitation Wind Pressure Humidity
00:00 +14°C° 0 mm 2 mps 734 mmHg 52%
01:00 +14°C° 0 mm 2 mps 734 mmHg 52%
02:00 +13°C° 0 mm 2 mps 734 mmHg 53%
03:00 +13°C° 0 mm 2 mps 734 mmHg 54%
04:00 +12°C° 0 mm 2 mps 734 mmHg 55%
05:00 +14°C° 0 mm 2 mps 735 mmHg 55%
06:00 +14°C° 0 mm 3 mps 735 mmHg 54%
07:00 +16°C° 0 mm 3 mps 735 mmHg 54%
08:00 +18°C° 0 mm 4 mps 735 mmHg 49%
09:00 +20°C° 0 mm 5 mps 735 mmHg 44%
10:00 +22°C° 0 mm 6 mps 735 mmHg 38%
11:00 +22°C° 0 mm 5 mps 735 mmHg 37%
12:00 +23°C° 0 mm 5 mps 735 mmHg 36%
13:00 +25°C° 0 mm 5 mps 735 mmHg 35%
14:00 +25°C° 0 mm 4 mps 735 mmHg 36%
15:00 +25°C° 0 mm 4 mps 735 mmHg 37%
16:00 +25°C° 0 mm 3 mps 735 mmHg 37%
17:00 +24°C° 0 mm 2 mps 734 mmHg 43%
18:00 +23°C° 0 mm 1 mps 734 mmHg 48%
19:00 +20°C° 0 mm 0 mps 734 mmHg 53%
20:00 +18°C° 0 mm 0 mps 734 mmHg 55%
21:00 +19°C° 0 mm 1 mps 734 mmHg 56%
22:00 +18°C° 0 mm 1 mps 734 mmHg 57%
23:00 +16°C° 0 mm 1 mps 734 mmHg 58%

22 May, Saturday

Time Temperature Precipitation Wind Pressure Humidity
00:00 +15°C° 0 mm 1 mps 734 mmHg 60%
01:00 +15°C° 0 mm 1 mps 735 mmHg 61%
02:00 +15°C° 0 mm 1 mps 735 mmHg 62%
03:00 +14°C° 0 mm 1 mps 735 mmHg 63%
04:00 +14°C° 0 mm 1 mps 735 mmHg 64%
05:00 +15°C° 0 mm 1 mps 735 mmHg 61%
06:00 +18°C° 0 mm 1 mps 736 mmHg 57%
07:00 +20°C° 0 mm 1 mps 736 mmHg 54%
08:00 +21°C° 0 mm 1 mps 736 mmHg 50%
09:00 +23°C° 0 mm 2 mps 736 mmHg 45%
10:00 +25°C° 0 mm 2 mps 736 mmHg 41%
11:00 +26°C° 0 mm 2 mps 736 mmHg 39%
12:00 +26°C° 0 mm 2 mps 736 mmHg 37%
13:00 +27°C° 0 mm 2 mps 736 mmHg 36%
14:00 +27°C° 0 mm 2 mps 736 mmHg 36%
15:00 +27°C° 0 mm 2 mps 736 mmHg 36%
16:00 +27°C° 0 mm 2 mps 736 mmHg 36%
17:00 +26°C° 0 mm 2 mps 736 mmHg 42%
18:00 +25°C° 0 mm 2 mps 736 mmHg 48%
19:00 +24°C° 0 mm 1 mps 735 mmHg 54%
20:00 +22°C° 0 mm 1 mps 735 mmHg 56%
21:00 +21°C° 0 mm 1 mps 735 mmHg 57%
22:00 +19°C° 0 mm 1 mps 735 mmHg 59%
23:00 +19°C° 0 mm 1 mps 735 mmHg 61%
Show more